Simultaneous Nadir Overpasses (SNOs) Predictions

Prediction of SNOs between GOES-17 and METOP-C Satellite Orbit:

Table of predicted SNOs for the next 14.0 days since TLE Epoch: 3/5/2022
Index Date Time (GOES-17) GOES-17 Lat,Lon METOP-C Lat,Lon Distance(km) Time Diff (sec)
1 03/05/2022 06:21:57 -0.03,-137.23 0.87,-133.09 471.19 80
2 03/06/2022 18:43:30 0.04,-137.23 0.11,-137.66 48.34 80
3 03/09/2022 06:41:51 -0.03,-137.22 -0.05,-137.26 4.79 80
4 03/11/2022 18:37:25 0.03,-137.20 -0.06,-136.83 42.36 80
5 03/13/2022 06:59:05 -0.03,-137.18 -0.95,-141.43 483.71 80
6 03/14/2022 06:35:46 -0.03,-137.17 0.14,-136.43 83.86 80
7 03/15/2022 18:54:38 0.03,-137.15 0.91,-140.99 438.18 80
8 03/16/2022 18:36:40 0.03,-137.14 -0.24,-136.01 129.17 80
9 03/18/2022 06:52:59 -0.03,-137.11 -0.81,-140.59 397.65 80
